Previsão horária em Barreiro

Hoje, 30 Outubro, Sexta-feira

Tempo Temperatura Precipitação Vento Pressão Humidade
00:00 +16°C° 0 mm 2 m/s 767 mmHg 79%
01:00 +16°C° 0 mm 2 m/s 767 mmHg 80%
02:00 +16°C° 0 mm 2 m/s 767 mmHg 81%
03:00 +15°C° 0 mm 2 m/s 767 mmHg 82%
04:00 +15°C° 0 mm 2 m/s 767 mmHg 83%
05:00 +15°C° 0 mm 2 m/s 767 mmHg 84%
06:00 +16°C° 0 mm 2 m/s 767 mmHg 80%
07:00 +17°C° 0 mm 2 m/s 767 mmHg 77%
08:00 +18°C° 0 mm 2 m/s 767 mmHg 73%
09:00 +20°C° 0 mm 2 m/s 767 mmHg 66%
10:00 +21°C° 0 mm 2 m/s 767 mmHg 59%
11:00 +24°C° 0 mm 2 m/s 767 mmHg 52%
12:00 +25°C° 0 mm 1 m/s 767 mmHg 50%
13:00 +26°C° 0 mm 1 m/s 766 mmHg 48%
14:00 +26°C° 0 mm 1 m/s 766 mmHg 45%
15:00 +25°C° 0 mm 1 m/s 766 mmHg 51%
16:00 +23°C° 0 mm 1 m/s 766 mmHg 57%
17:00 +20°C° 0 mm 2 m/s 766 mmHg 63%
18:00 +20°C° 0 mm 2 m/s 766 mmHg 64%
19:00 +19°C° 0 mm 2 m/s 767 mmHg 66%
20:00 +19°C° 0 mm 2 m/s 767 mmHg 67%
21:00 +19°C° 0 mm 2 m/s 767 mmHg 68%
22:00 +19°C° 0 mm 1 m/s 767 mmHg 69%
23:00 +19°C° 0 mm 1 m/s 767 mmHg 71%

Amanhã, 31 Outubro, Sábado

Tempo Temperatura Precipitação Vento Pressão Humidade
00:00 +19°C° 0 mm 1 m/s 767 mmHg 72%
01:00 +18°C° 0 mm 1 m/s 767 mmHg 73%
02:00 +18°C° 0 mm 1 m/s 766 mmHg 74%
03:00 +18°C° 0 mm 1 m/s 767 mmHg 75%
04:00 +18°C° 0 mm 1 m/s 767 mmHg 76%
05:00 +16°C° 0 mm 1 m/s 767 mmHg 77%
06:00 +18°C° 0 mm 1 m/s 767 mmHg 73%
07:00 +19°C° 0 mm 1 m/s 768 mmHg 70%
08:00 +20°C° 0 mm 1 m/s 768 mmHg 67%
09:00 +22°C° 0 mm 1 m/s 768 mmHg 61%
10:00 +24°C° 0 mm 1 m/s 768 mmHg 56%
11:00 +25°C° 0 mm 1 m/s 768 mmHg 50%
12:00 +25°C° 0 mm 1 m/s 768 mmHg 49%
13:00 +25°C° 0 mm 1 m/s 767 mmHg 48%
14:00 +25°C° 0 mm 2 m/s 767 mmHg 47%
15:00 +24°C° 0 mm 2 m/s 767 mmHg 53%
16:00 +21°C° 0 mm 2 m/s 767 mmHg 59%
17:00 +19°C° 0 mm 2 m/s 767 mmHg 66%
18:00 +20°C° 0 mm 1 m/s 767 mmHg 68%
19:00 +20°C° 0 mm 1 m/s 768 mmHg 69%
20:00 +19°C° 0 mm 1 m/s 768 mmHg 71%
21:00 +19°C° 0 mm 1 m/s 768 mmHg 73%
22:00 +19°C° 0 mm 1 m/s 768 mmHg 75%
23:00 +16°C° 0 mm 0 m/s 767 mmHg 77%

Depois de amanhã, 1 Novembro, Domingo

Tempo Temperatura Precipitação Vento Pressão Humidade
00:00 +18°C° 0 mm 1 m/s 767 mmHg 77%
01:00 +19°C° 0 mm 1 m/s 767 mmHg 77%
02:00 +19°C° 0 mm 1 m/s 767 mmHg 78%
03:00 +16°C° 0 mm 0 m/s 767 mmHg 80%
04:00 +16°C° 0 mm 0 m/s 767 mmHg 81%
05:00 +16°C° 0 mm 0 m/s 767 mmHg 83%
06:00 +17°C° 0 mm 0 m/s 767 mmHg 80%
07:00 +17°C° 0 mm 0 m/s 767 mmHg 78%
08:00 +18°C° 0 mm 0 m/s 768 mmHg 75%
09:00 +20°C° 0 mm 0 m/s 767 mmHg 70%
10:00 +23°C° 0 mm 1 m/s 767 mmHg 66%
11:00 +24°C° 0 mm 1 m/s 767 mmHg 61%
12:00 +24°C° 0 mm 1 m/s 767 mmHg 63%
13:00 +24°C° 0 mm 2 m/s 766 mmHg 64%
14:00 +24°C° 0 mm 2 m/s 766 mmHg 65%
15:00 +23°C° 0 mm 2 m/s 766 mmHg 71%
16:00 +21°C° 0 mm 2 m/s 766 mmHg 77%
17:00 +21°C° 0 mm 1 m/s 766 mmHg 83%
18:00 +21°C° 0 mm 1 m/s 766 mmHg 85%
19:00 +20°C° 0 mm 1 m/s 766 mmHg 88%
20:00 +20°C° 0 mm 1 m/s 766 mmHg 90%
21:00 +20°C° 0 mm 1 m/s 766 mmHg 92%
22:00 +20°C° 0 mm 1 m/s 766 mmHg 93%
23:00 +19°C° 0 mm 1 m/s 766 mmHg 94%

2 Novembro, Segunda-feira

Tempo Temperatura Precipitação Vento Pressão Humidade
00:00 +19°C° 0 mm 1 m/s 766 mmHg 95%
01:00 +19°C° 0 mm 1 m/s 766 mmHg 95%
02:00 +19°C° 0 mm 1 m/s 765 mmHg 95%
03:00 +19°C° 0 mm 1 m/s 765 mmHg 94%
04:00 +17°C° 0 mm 0 m/s 765 mmHg 93%
05:00 +18°C° 0 mm 0 m/s 766 mmHg 92%
06:00 +18°C° 0 mm 0 m/s 766 mmHg 89%
07:00 +19°C° 0 mm 0 m/s 766 mmHg 85%
08:00 +22°C° 0 mm 1 m/s 766 mmHg 81%
09:00 +23°C° 0 mm 1 m/s 766 mmHg 75%
10:00 +24°C° 0 mm 1 m/s 766 mmHg 68%
11:00 +25°C° 0 mm 1 m/s 766 mmHg 61%
12:00 +25°C° 0 mm 2 m/s 766 mmHg 65%
13:00 +24°C° 0 mm 3 m/s 766 mmHg 68%
14:00 +23°C° 0 mm 4 m/s 766 mmHg 71%
15:00 +21°C° 0 mm 5 m/s 766 mmHg 75%
16:00 +20°C° 0 mm 5 m/s 767 mmHg 79%
17:00 +19°C° 0 mm 6 m/s 767 mmHg 83%
18:00 +17°C° 0 mm 6 m/s 767 mmHg 81%
19:00 +16°C° 0 mm 6 m/s 767 mmHg 80%
20:00 +15°C° 0 mm 7 m/s 768 mmHg 78%
21:00 +15°C° 0 mm 7 m/s 768 mmHg 74%
22:00 +13°C° 0 mm 8 m/s 768 mmHg 71%
23:00 +13°C° 0 mm 8 m/s 769 mmHg 68%

3 Novembro, Terça-feira

Tempo Temperatura Precipitação Vento Pressão Humidade
00:00 +12°C° 0 mm 8 m/s 769 mmHg 67%
01:00 +12°C° 0 mm 8 m/s 769 mmHg 67%
02:00 +12°C° 0 mm 8 m/s 769 mmHg 67%
03:00 +11°C° 0 mm 8 m/s 769 mmHg 64%
04:00 +11°C° 0 mm 8 m/s 769 mmHg 61%
05:00 +11°C° 0 mm 9 m/s 769 mmHg 58%
06:00 +12°C° 0 mm 9 m/s 769 mmHg 57%
07:00 +12°C° 0 mm 9 m/s 769 mmHg 56%
08:00 +13°C° 0 mm 10 m/s 769 mmHg 55%
09:00 +14°C° 0 mm 10 m/s 769 mmHg 53%
10:00 +16°C° 0 mm 9 m/s 769 mmHg 50%
11:00 +17°C° 0 mm 9 m/s 769 mmHg 48%
12:00 +17°C° 0 mm 9 m/s 768 mmHg 49%
13:00 +17°C° 0 mm 9 m/s 768 mmHg 50%
14:00 +17°C° 0 mm 9 m/s 768 mmHg 51%
15:00 +16°C° 0 mm 9 m/s 768 mmHg 56%
16:00 +13°C° 0 mm 9 m/s 768 mmHg 61%
17:00 +12°C° 0 mm 9 m/s 768 mmHg 67%
18:00 +12°C° 0 mm 9 m/s 768 mmHg 67%
19:00 +12°C° 0 mm 8 m/s 768 mmHg 67%
20:00 +12°C° 0 mm 8 m/s 768 mmHg 67%
21:00 +11°C° 0 mm 7 m/s 767 mmHg 68%
22:00 +11°C° 0 mm 7 m/s 767 mmHg 68%
23:00 +11°C° 0 mm 6 m/s 767 mmHg 68%

4 Novembro, Quarta-feira

Tempo Temperatura Precipitação Vento Pressão Humidade
00:00 +11°C° 0 mm 6 m/s 766 mmHg 67%
01:00 +10°C° 0 mm 6 m/s 766 mmHg 66%
02:00 +10°C° 0 mm 6 m/s 765 mmHg 65%
03:00 +10°C° 0 mm 6 m/s 765 mmHg 64%
04:00 +10°C° 0 mm 7 m/s 764 mmHg 63%
05:00 +9°C° 0 mm 7 m/s 764 mmHg 61%
06:00 +10°C° 0 mm 7 m/s 763 mmHg 59%
07:00 +10°C° 0 mm 7 m/s 763 mmHg 57%
08:00 +11°C° 0 mm 8 m/s 763 mmHg 54%
09:00 +12°C° 0 mm 8 m/s 762 mmHg 52%
10:00 +12°C° 0 mm 8 m/s 762 mmHg 49%
11:00 +13°C° 0 mm 8 m/s 761 mmHg 46%
12:00 +13°C° 0 mm 8 m/s 760 mmHg 47%
13:00 +13°C° 0 mm 8 m/s 759 mmHg 48%
14:00 +13°C° 0 mm 8 m/s 758 mmHg 49%
15:00 +12°C° 0.1 mm 7 m/s 758 mmHg 53%
16:00 +12°C° 0.1 mm 7 m/s 757 mmHg 58%
17:00 +11°C° 0.1 mm 6 m/s 756 mmHg 62%
18:00 +12°C° 0.2 mm 5 m/s 756 mmHg 62%
19:00 +10°C° 0.2 mm 5 m/s 755 mmHg 62%
20:00 +11°C° 0.2 mm 4 m/s 755 mmHg 62%
21:00 +11°C° 0.2 mm 4 m/s 754 mmHg 63%
22:00 +11°C° 0.2 mm 3 m/s 754 mmHg 65%
23:00 +10°C° 0.2 mm 2 m/s 753 mmHg 66%
Mostrar mais